Wind_Speed
101 101 100 97 93 92 93 92 90 89 88 87 87 86 84 82 80 80 80 79 78 75 72 70 69 67 65 66 66 63 59 55 52 52 52 52 53 54 55 54 53 53 52 51 49 49 48 46 45 45 43 43 43 43 42 42 41 40 39 38 38 36 35 36 37 38 38 37 36 36 37 38 38 39 40 41 41 42 42 42 44 46 47 47 47 47
102 102 99 96 94 94 94 93 91 90 89 88 88 87 86 84 82 82 82 81 80 77 74 72 71 69 67 67 68 65 61 58 56 55 55 56 57 56 54 55 55 55 55 54 53 52 51 49 47 46 45 45 44 44 43 44 44 43 42 41 41 39 38 39 39 40 40 39 38 39 39 39 40 40 40 40 40 40 39 39 40 41 42 43 43 42
103 102 98 97 96 95 94 92 91 89 89 88 88 87 86 84 83 85 85 83 82 80 77 75 73 71 69 68 68 67 63 61 60 59 59 60 60 57 55 56 57 56 56 57 57 56 55 52 49 48 47 47 46 46 45 46 45 45 45 45 44 43 42 42 42 42 42 41 42 42 42 41 42 43 42 42 42 41 39 39 40 40 40 41 42 41
107 103 100 99 99 97 95 94 93 91 90 89 87 86 85 85 87 87 87 85 84 83 80 78 76 72 71 69 68 69 67 65 64 62 62 63 62 60 58 58 58 58 59 60 60 60 58 56 53 50 49 49 49 48 48 48 47 47 48 48 47 47 46 46 46 46 45 44 44 44 44 44 44 45 45 46 45 43 42 42 42 43 43 43 44 44
111 109 106 105 104 101 99 98 98 95 92 90 89 87 86 88 89 89 89 88 87 85 82 81 78 73 71 70 69 72 71 68 66 65 64 65 65 64 63 61 61 62 63 63 63 62 61 59 56 54 53 52 51 51 51 50 49 50 50 50 50 50 50 50 50 49 48 47 47 47 46 46 46 47 48 48 47 46 45 45 46 46 46 46 46 47
114 113 113 112 109 105 103 102 101 98 95 94 93 90 89 91 92 91 90 90 90 88 85 83 80 74 73 73 72 73 74 71 69 68 67 68 68 68 67 66 66 65 65 66 66 65 63 62 60 59 57 55 54 53 52 52 52 53 54 53 53 53 53 53 53 53 51 50 50 49 49 49 49 50 51 51 50 49 48 48 49 49 49 49 50 50
117 116 115 115 113 109 106 105 103 100 98 98 96 94 94 94 94 93 92 93 92 90 88 86 82 76 75 75 73 73 75 75 73 71 71 71 71 71 71 70 70 69 69 69 68 67 66 65 64 63 61 59 58 57 55 54 55 56 56 56 56 56 56 56 56 55 54 53 53 52 52 52 52 53 54 53 53 53 52 51 52 52 52 53 53 53
118 117 117 116 114 111 109 107 105 103 102 101 100 98 98 97 97 96 95 95 95 94 92 89 85 79 76 75 75 75 76 77 76 74 73 73 73 74 74 74 74 74 73 72 71 70 69 68 67 65 63 62 61 61 59 59 58 58 58 58 59 59 59 59 58 57 56 56 56 55 55 56 56 56 56 56 56 56 56 55 55 55 55 55 55 56
118 117 117 117 117 114 111 108 107 107 106 105 102 101 101 100 100 100 99 100 100 99 96 92 89 83 77 76 78 79 78 78 78 78 76 74 74 75 76 77 78 79 78 76 74 73 72 72 71 68 65 64 64 63 63 63 62 61 60 60 61 62 62 61 60 59 59 59 59 59 59 60 60 60 59 59 59 60 60 59 58 58 58 58 58 58
121 120 120 120 120 119 116 114 113 112 111 109 106 104 104 104 104 104 105 104 105 104 99 95 93 87 81 80 81 82 80 79 80 80 79 77 76 76 77 79 81 82 82 81 79 77 76 75 74 72 69 67 66 65 65 65 65 65 64 63 63 63 64 64 63 62 62 62 62 62 62 62 63 63 62 62 62 63 63 63 62 62 61 61 61 61
125 124 124 123 123 122 120 119 119 117 115 112 109 108 107 106 106 108 109 109 110 107 101 96 95 91 87 84 84 84 83 82 82 82 81 79 78 78 78 80 83 85 85 85 83 81 80 78 76 75 74 72 70 68 67 67 67 68 67 67 66 66 66 66 65 65 65 65 65 65 64 64 64 64 64 64 64 65 65 65 65 64 63 63 63 63
128 126 126 125 123 122 122 121 121 120 118 114 111 109 109 108 109 110 111 112 112 108 101 98 97 97 94 88 85 85 85 86 85 84 83 81 80 80 81 83 85 86 87 87 87 86 84 81 79 79 78 76 74 72 70 70 70 70 70 69 69 68 68 68 68 68 68 67 67 67 67 66 66 65 65 65 65 65 66 66 67 66 65 65 65 65
130 128 126 125 123 123 123 123 122 120 117 115 113 111 110 111 111 113 114 114 113 108 103 100 101 102 100 91 87 87 88 88 88 86 84 83 84 85 85 86 87 88 89 89 90 89 87 84 82 82 82 80 78 76 74 73 72 72 72 72 71 71 70 69 69 70 70 70 69 69 69 68 68 67 66 66 66 67 67 67 68 67 67 66 67 68
133 131 129 128 126 125 124 124 121 118 115 113 112 112 112 113 114 115 116 116 114 110 105 104 104 106 104 95 90 89 89 90 90 88 86 85 87 89 90 90 90 91 92 91 91 91 89 86 86 85 84 83 82 80 78 77 76 76 75 74 74 73 72 71 71 71 72 72 72 71 71 71 70 69 69 68 69 69 69 69 69 69 69 69 69 70
136 134 133 130 127 125 123 122 120 118 116 115 115 116 116 117 118 118 119 118 117 114 110 108 108 109 106 99 94 91 92 92 91 90 89 88 89 91 93 93 93 94 94 93 93 92 90 89 89 88 87 86 85 84 83 81 79 79 78 78 77 76 75 74 73 73 73 73 73 73 73 73 73 72 72 71 71 71 71 71 71 71 71 71 71 72
137 135 133 131 128 127 125 124 123 122 122 121 120 121 120 120 120 121 121 121 119 118 115 112 111 109 107 102 96 94 94 94 94 93 91 92 92 93 94 96 96 96 96 96 95 93 92 92 92 91 90 89 88 88 87 85 84 82 82 81 80 80 79 78 76 75 75 75 75 75 75 75 75 75 75 74 74 74 74 73 73 73 73 73 73 74
138 136 133 131 130 130 129 128 128 127 126 126 125 124 122 122 121 122 123 124 124 123 120 117 114 110 108 103 98 97 97 97 97 96 94 94 95 95 96 98 98 97 97 98 96 95 95 95 95 94 94 93 92 91 91 89 88 86 84 84 83 83 82 81 80 79 78 77 77 77 77 77 77 77 77 77 77 77 76 75 75 76 76 76 76 76
140 138 136 133 131 131 132 132 132 130 130 129 128 126 125 125 125 126 128 128 128 126 122 119 116 112 110 105 101 101 100 100 100 100 98 97 97 98 98 99 99 99 98 99 99 99 99 99 98 98 97 96 95 94 94 93 91 89 87 86 86 85 85 84 83 82 81 80 80 80 79 79 79 79 79 79 79 79 78 78 78 79 78 79 79 78
142 141 139 137 135 135 136 136 135 134 133 132 130 128 128 128 128 129 130 130 129 127 124 120 118 117 113 108 105 106 105 103 104 104 103 102 101 101 101 100 100 100 100 101 102 101 101 101 101 101 100 99 98 97 96 95 94 93 91 90 89 88 87 87 86 85 85 84 83 83 83 82 82 81 81 81 81 81 81 81 81 81 81 81 81 81
142 142 141 139 138 138 139 139 137 135 134 134 132 131 129 129 129 129 131 131 131 131 128 125 123 121 117 112 110 110 108 108 108 107 106 106 104 104 104 103 102 102 103 103 103 103 103 102 103 103 103 103 102 101 99 98 97 96 94 93 92 91 90 90 89 89 88 88 87 87 86 86 85 84 84 84 84 84 84 84 84 84 83 83 83 83
145 143 142 140 141 142 141 139 137 136 135 134 134 132 131 130 130 130 132 134 135 135 133 130 127 124 120 117 115 115 113 112 113 111 110 109 108 106 106 105 104 105 105 105 105 105 105 104 104 105 106 106 105 104 102 101 100 98 97 96 95 94 93 93 92 92 92 91 91 90 90 89 89 88 87 87 87 86 87 87 87 86 86 86 85 86
146 145 144 143 142 143 142 140 139 139 138 137 136 135 134 133 134 135 136 137 138 138 136 135 131 126 123 121 120 119 118 117 117 116 114 113 111 110 109 108 107 107 108 108 108 109 108 108 107 107 108 109 108 107 105 104 102 101 100 99 97 96 96 95 95 94 94 94 94 93 93 92 92 91 91 90 90 90 90 90 90 89 89 88 89 89
147 147 147 146 145 143 142 142 142 142 141 140 139 138 138 137 138 139 139 139 139 138 138 137 134 128 124 125 125 124 123 122 121 120 118 116 115 113 112 112 111 111 110 111 113 113 112 111 111 111 111 111 110 109 109 107 106 105 104 102 101 100 99 99 98 98 98 98 97 97 96 95 95 95 94 94 93 93 93 92 92 92 92 91 91 92
147 149 149 149 148 146 145 144 145 145 144 144 142 140 139 139 139 140 140 140 140 140 139 138 135 129 126 128 129 129 127 126 125 123 122 120 119 117 116 115 115 115 114 114 115 116 116 115 114 115 115 114 113 112 112 111 110 109 108 107 106 104 104 103 103 103 102 102 101 101 100 100 99 99 98 98 97 97 96 96 95 95 94 94 94 94
144 147 150 150 150 149 148 146 145 144 144 143 141 140 139 140 141 142 142 142 142 141 140 140 137 132 129 130 132 132 132 131 130 128 126 124 123 122 121 119 119 119 118 117 117 117 118 118 118 119 118 118 117 116 115 114 113 113 112 111 110 109 109 108 107 107 106 106 105 105 105 104 103 103 103 102 101 101 101 100 99 99 98 98 98 98
140 144 147 149 150 149 147 145 143 142 141 140 140 140 142 143 143 144 144 144 144 142 141 141 139 135 132 131 132 133 134 134 134 133 131 129 127 126 125 123 122 122 121 121 120 119 120 121 122 122 122 121 120 119 119 118 117 116 116 115 114 113 113 112 111 110 110 109 109 109 108 108 107 107 106 106 106 105 105 104 104 103 103 102 102 102
138 141 143 144 145 146 145 144 143 142 142 142 143 143 144 145 146 147 148 147 146 145 145 144 143 140 136 133 133 134 135 135 136 137 136 133 132 130 129 128 126 125 124 124 123 122 122 123 124 125 125 124 122 122 122 122 122 121 120 120 119 118 117 116 115 114 114 113 113 113 112 112 111 110 110 110 110 109 109 108 108 107 107 106 106 105
133 136 137 138 139 140 141 143 144 144 144 145 146 146 147 149 150 151 151 150 150 149 148 147 145 143 140 137 135 135 136 136 136 138 138 138 136 134 134 132 131 129 127 126 126 125 124 124 125 126 127 127 126 125 125 125 125 125 125 124 124 122 121 120 119 118 118 117 117 117 116 116 115 114 114 113 113 113 113 113 112 111 111 110 110 109
130 130 131 131 132 134 136 138 141 143 144 146 147 148 150 151 151 152 151 151 151 151 150 149 147 144 142 140 138 138 138 139 139 139 139 140 140 139 138 138 136 134 131 130 129 128 127 127 127 127 128 130 131 130 130 129 129 129 128 128 127 127 126 125 123 123 122 122 121 121 120 120 119 118 118 117 117 117 117 116 116 116 115 115 114 114
125 125 125 125 126 127 130 133 136 139 142 145 147 150 151 152 152 152 152 152 152 151 150 149 148 146 144 143 142 142 141 141 141 141 141 141 142 142 142 142 140 138 136 134 132 131 131 131 130 129 130 131 133 134 134 134 133 132 132 131 131 130 130 129 128 127 127 126 126 125 124 123 123 122 122 121 121 120 120 120 120 120 119 119 118 118
121 120 120 120 121 123 125 128 131 133 137 141 144 148 150 152 153 153 152 152 152 151 150 150 149 148 147 146 146 145 145 144 143 142 142 143 144 144 144 144 143 142 140 139 137 136 136 136 135 134 133 132 133 135 137 137 137 137 136 136 135 135 134 133 132 131 131 130 129 129 128 127 127 126 126 126 125 124 124 123 123 123 123 123 122 122
118 117 117 117 118 121 124 127 128 130 133 137 140 142 145 147 149 150 151 151 151 151 151 152 152 150 149 148 148 147 146 144 143 143 145 146 146 146 146 146 146 145 143 142 141 141 141 141 141 140 139 137 136 136 138 139 140 140 140 140 140 139 138 137 136 135 134 134 133 132 132 131 130 130 130 129 129 128 128 127 127 127 127 126 126 125
113 113 115 116 117 119 122 126 128 130 132 134 135 136 137 139 141 144 146 147 149 151 152 152 152 151 150 150 149 147 145 144 144 146 148 149 150 149 148 147 146 146 145 145 144 144 144 144 144 144 144 143 142 141 141 141 142 143 143 143 143 143 142 141 140 139 138 137 137 136 135 134 133 133 133 133 132 132 131 131 130 130 130 130 129 129
111 112 113 116 117 118 120 122 126 129 130 130 129 128 129 132 135 139 141 143 144 147 148 149 149 149 149 149 149 148 147 146 147 148 150 150 151 150 149 148 147 147 147 147 147 147 146 146 146 146 147 147 147 146 146 145 146 146 147 147 146 146 145 144 143 143 142 142 141 140 139 138 136 135 135 135 135 134 134 134 133 133 133 133 133 132
112 113 114 116 118 119 120 123 125 127 128 127 125 124 125 128 131 133 134 135 136 137 139 141 142 142 144 145 147 147 148 148 149 150 150 150 150 150 149 149 149 149 150 150 150 150 149 149 149 149 149 149 150 149 149 149 149 149 150 150 150 149 148 148 147 146 145 144 144 144 143 142 141 139 138 138 137 137 137 137 136 136 136 136 135 135
113 113 114 116 118 120 122 124 127 128 127 125 124 123 123 123 124 124 125 125 126 128 130 132 133 135 137 139 141 143 145 146 147 148 149 149 150 150 150 150 150 151 151 152 152 152 153 153 152 152 152 152 152 152 152 152 152 152 152 152 152 152 152 151 151 150 150 149 148 147 146 145 144 142 141 140 140 139 139 138 138 138 138 137 136 135
115 113 112 114 115 117 119 121 123 124 122 119 116 114 113 113 115 117 119 119 120 123 125 126 128 130 132 135 136 138 139 141 141 142 143 144 146 148 149 150 151 151 152 153 153 154 154 155 155 155 155 155 155 154 154 153 153 154 154 155 154 154 153 153 152 152 152 151 151 151 150 149 148 146 145 143 142 141 140 139 139 138 138 138 138 137
113 113 112 112 112 113 115 117 118 117 113 109 107 105 106 109 111 114 116 116 116 118 121 122 124 126 128 130 132 134 136 136 135 135 136 138 139 141 143 145 147 149 150 152 153 153 154 154 155 156 156 156 156 156 156 155 155 155 156 156 156 156 155 154 153 152 152 151 151 151 151 151 151 151 150 149 148 147 145 144 143 142 141 141 141 141
112 113 113 113 113 113 114 115 115 112 107 105 105 106 108 110 112 115 116 113 112 114 118 120 122 124 125 126 128 129 131 130 129 129 131 132 134 135 137 139 141 143 145 147 149 150 152 153 154 155 156 156 156 156 156 156 156 156 157 157 157 157 156 156 155 154 153 152 152 151 151 151 151 151 151 150 151 151 151 150 149 147 146 146 145 146
111 112 113 113 113 113 113 114 113 110 106 104 105 106 108 110 112 115 114 110 109 112 116 118 120 121 122 123 124 124 125 124 123 124 126 127 128 130 132 135 137 139 141 143 144 146 148 149 151 152 153 154 155 156 156 156 156 156 157 157 157 157 157 157 157 156 155 155 154 153 153 153 152 152 151 150 150 150 151 152 152 152 151 150 150 150
110 111 112 112 112 112 112 112 111 108 105 103 104 105 108 109 111 111 109 108 109 112 115 116 118 117 117 118 118 118 119 119 119 120 121 122 123 124 126 129 131 133 135 137 139 141 143 145 147 148 149 151 152 153 154 155 155 156 156 156 156 157 157 157 157 157 157 157 156 156 155 155 155 154 154 153 152 151 151 152 152 152 152 152 152 153
105 107 107 107 107 108 108 109 108 105 103 102 103 106 107 106 106 106 107 108 111 111 112 113 114 114 114 114 114 114 114 115 115 116 116 117 117 119 120 122 124 127 128 130 132 134 137 140 142 145 146 148 149 150 151 152 152 153 154 154 155 156 156 157 157 157 157 157 157 157 157 157 157 157 156 156 155 154 153 153 152 152 152 151 151 152
101 102 102 102 102 102 103 104 102 99 98 99 102 104 103 102 102 104 106 108 109 109 109 110 111 111 111 111 110 111 111 111 110 110 111 111 112 112 113 116 119 121 123 125 127 129 131 134 137 140 142 144 146 147 148 149 149 150 150 151 151 152 153 154 155 156 157 157 157 157 158 158 158 158 158 157 156 155 154 154 153 153 152 152 151 151
95 96 96 95 96 98 98 97 95 94 94 96 99 101 101 100 102 103 105 107 107 107 108 109 110 110 109 109 108 108 107 107 106 105 104 104 103 102 104 107 111 114 117 120 122 124 126 128 130 133 136 139 141 143 144 145 146 147 147 147 148 148 148 149 150 151 152 153 154 155 156 156 157 157 157 157 157 156 155 155 154 154 154 153 153 152
89 90 91 91 93 94 93 92 92 92 93 95 97 98 99 100 101 102 104 105 106 107 108 109 109 108 107 106 105 104 103 101 100 97 95 94 93 93 96 100 104 107 110 113 116 119 121 123 125 127 130 133 135 137 139 140 141 142 143 143 144 144 144 145 145 146 147 148 149 150 152 152 153 153 154 154 154 154 154 154 154 154 154 154 154 153
85 87 88 88 89 90 89 89 90 90 90 92 94 95 97 99 101 102 103 104 105 106 107 107 107 105 104 102 101 99 97 94 92 89 88 87 87 89 92 95 99 102 104 107 110 114 117 118 120 122 124 126 129 131 133 134 135 136 136 137 138 139 139 140 141 142 143 144 145 146 147 148 149 149 149 150 150 150 150 151 151 151 151 152 153 153
82 84 85 85 86 86 85 86 87 88 89 91 93 94 97 99 101 102 103 104 105 106 106 105 104 102 100 98 95 93 90 88 86 85 84 84 84 85 88 91 94 97 100 103 106 110 113 114 116 117 118 119 122 124 126 127 128 129 129 129 130 132 133 134 136 137 139 140 141 142 143 144 145 145 146 146 147 147 147 147 147 147 147 148 149 149
80 83 84 83 84 84 84 85 87 89 90 92 93 95 97 99 101 102 102 103 103 103 103 101 100 98 96 93 91 88 86 85 84 83 83 82 83 84 85 88 90 94 97 100 103 106 109 111 112 113 113 114 116 117 118 119 120 121 121 121 122 123 124 126 128 130 132 134 136 137 138 140 140 141 142 142 143 143 144 144 144 144 144 144 145 145
81 83 83 83 84 85 85 86 88 90 93 94 95 97 98 100 101 101 101 101 100 100 99 98 97 95 93 90 88 86 84 84 83 83 82 82 83 84 85 87 90 92 95 99 102 104 107 109 110 110 111 111 112 113 112 112 112 112 113 113 113 114 116 117 119 121 123 125 128 130 131 133 134 135 136 137 138 139 140 140 140 140 140 141 141 141
82 83 84 85 86 85 86 89 91 94 96 97 97 98 98 99 99 99 99 98 98 97 97 95 94 92 90 89 87 86 85 84 83 83 83 84 84 85 86 89 91 93 96 99 102 104 106 108 109 109 109 109 109 110 109 107 106 106 106 106 105 106 107 109 111 113 115 117 119 121 124 125 127 128 129 131 132 133 134 135 136 136 137 137 138 138
83 84 85 86 87 87 88 92 94 95 96 97 97 97 97 97 97 97 97 96 96 95 94 93 91 90 89 88 87 86 85 84 84 84 85 85 86 87 88 90 92 94 97 100 103 105 107 109 110 109 108 108 108 108 107 106 104 103 102 101 100 100 101 102 104 105 107 108 110 113 115 117 119 121 122 123 125 125 126 128 129 130 131 132 133 133
Wind_Direction
234 234 235 235 234 235 235 236 235 234 234 234 234 235 235 236 236 238 239 240 241 240 239 238 238 238 239 244 247 248 249 249 249 251 252 253 253 255 257 260 261 262 263 264 265 265 263 262 262 261 261 262 263 265 267 267 266 265 265 264 264 265 264 264 265 266 267 269 271 272 271 272 273 274 274 275 276 277 278 278 279 278 278 279 279 280
233 234 235 235 234 234 235 235 235 235 235 235 235 236 236 237 237 238 239 240 241 241 240 239 238 238 239 241 245 247 249 250 250 250 251 252 252 252 255 258 260 261 263 264 264 264 263 262 262 262 261 261 261 263 264 265 265 265 265 264 263 263 262 262 263 264 266 268 270 270 272 274 276 277 278 278 279 280 282 283 282 280 280 280 280 281
234 235 235 235 235 235 235 236 236 236 236 237 237 237 237 238 238 239 239 239 240 241 240 239 238 238 239 241 244 247 248 249 250 249 250 251 252 253 254 256 259 260 262 263 263 263 263 262 262 262 262 262 261 260 261 262 264 265 264 264 263 262 261 260 261 262 264 267 268 270 273 275 276 278 279 280 280 282 284 284 283 282 282 282 282 283
235 236 236 236 236 236 236 236 237 236 236 237 237 238 238 238 239 240 240 240 240 240 240 240 239 238 239 240 243 247 247 247 249 250 251 252 253 255 254 254 256 258 259 260 261 262 262 262 262 262 262 263 262 261 259 260 262 263 263 263 263 262 262 261 261 262 264 265 267 269 271 273 275 277 278 279 280 282 283 283 283 283 284 283 284 285
234 235 235 235 235 235 236 236 237 236 236 237 237 237 237 238 239 239 240 240 240 239 239 240 240 239 239 240 242 246 247 247 249 251 252 253 253 254 254 253 253 255 256 258 259 261 262 262 262 262 261 262 262 262 261 260 260 261 261 262 262 263 262 262 262 262 263 265 267 269 271 272 274 275 276 277 279 281 281 282 283 283 284 285 285 285
234 234 235 235 235 235 235 236 237 237 237 237 237 237 237 238 239 239 239 240 240 239 239 239 240 239 240 241 242 245 248 248 248 249 250 252 253 254 254 254 253 254 255 257 258 259 261 262 261 261 261 261 262 262 262 262 261 260 260 260 261 262 262 262 263 263 264 266 267 269 270 271 273 273 274 276 277 278 279 280 281 282 283 284 285 285
235 235 236 236 236 236 236 236 237 238 238 237 237 238 238 238 239 239 239 240 241 240 240 239 239 238 240 242 243 244 247 249 248 248 249 250 252 254 255 255 255 255 255 256 258 259 260 260 261 261 261 261 262 262 262 262 261 261 261 261 260 261 261 262 263 264 265 266 267 268 269 270 271 271 273 274 275 276 277 278 279 281 282 283 284 285
236 236 237 238 238 238 237 237 238 238 238 238 238 238 239 239 240 240 240 241 241 241 240 240 239 237 237 241 243 244 246 249 249 248 248 249 250 253 255 256 256 256 255 255 256 257 259 259 260 261 261 261 262 262 262 262 261 261 262 262 262 262 261 261 262 264 264 265 266 266 268 269 269 270 272 274 275 276 276 277 278 279 280 281 282 283
236 237 238 239 240 240 239 238 238 238 238 238 238 239 239 240 241 242 241 241 242 242 241 240 240 238 236 239 242 244 245 248 250 250 248 248 249 251 253 255 256 257 257 256 255 256 257 259 259 260 261 261 261 262 263 263 263 262 262 262 263 264 263 263 263 263 264 264 265 265 266 267 268 270 271 273 274 275 276 277 278 278 279 280 280 281
233 234 236 237 239 239 239 238 238 238 239 239 238 238 239 240 240 241 242 242 242 242 241 241 242 240 237 238 241 243 244 246 249 251 250 249 249 250 252 254 256 257 257 258 257 256 256 258 259 260 261 261 261 262 263 264 264 264 264 263 264 265 265 266 265 264 264 264 264 265 265 266 268 269 270 272 273 274 276 277 277 277 278 278 278 279
233 233 233 234 236 238 238 238 238 239 239 239 239 239 239 239 240 241 242 242 243 242 242 242 243 242 238 237 239 242 244 245 246 249 251 251 250 251 252 254 255 256 257 258 258 258 257 258 259 260 261 260 260 261 263 264 265 265 265 265 265 265 266 266 267 266 265 265 265 265 265 266 267 269 270 271 272 273 274 275 275 276 276 276 277 277
233 233 233 234 235 237 238 238 239 239 240 241 241 241 241 241 241 242 242 243 244 244 244 243 244 244 242 239 239 242 244 246 246 248 250 252 252 252 252 253 254 255 256 257 258 258 258 259 260 260 261 261 261 260 261 263 264 265 266 266 266 266 266 267 267 267 267 267 267 267 267 267 267 268 269 270 271 271 272 273 273 274 274 275 275 275
233 234 235 235 236 237 238 239 240 240 240 241 242 243 243 244 243 244 244 245 245 246 245 245 245 246 245 242 241 242 245 247 248 249 250 251 253 253 253 253 254 255 256 257 258 259 259 260 260 261 261 262 262 261 261 262 263 264 265 266 266 266 266 267 267 267 268 268 268 268 268 268 267 267 268 268 269 270 271 272 273 273 274 274 274 274
233 233 234 235 236 237 239 240 241 242 242 243 244 245 245 246 246 246 246 247 247 246 245 245 245 247 247 245 242 243 245 247 249 250 250 251 252 253 253 253 254 255 256 257 258 259 260 261 260 260 261 262 262 262 261 262 262 263 264 265 265 266 266 266 267 267 268 268 269 269 269 268 268 268 268 268 269 269 270 271 272 273 273 273 273 274
232 233 233 234 236 238 239 241 242 243 243 243 243 244 244 245 246 247 247 247 248 247 246 245 245 247 247 246 244 243 244 246 248 249 250 250 250 252 253 254 254 255 256 257 258 259 260 261 261 261 261 261 262 262 262 262 262 263 264 264 265 265 266 266 266 266 267 268 268 269 269 270 270 269 269 269 269 269 270 270 271 272 272 273 273 274
233 233 233 234 235 236 238 239 241 241 242 242 242 243 243 245 246 247 248 249 249 249 248 246 246 246 247 246 245 244 244 245 246 247 248 249 249 250 252 254 254 255 256 257 258 259 260 260 261 261 261 261 261 262 263 263 263 263 263 264 264 265 266 266 266 266 267 267 268 268 269 270 270 270 270 270 269 269 269 270 271 271 271 272 273 273
235 235 235 234 235 236 237 238 239 239 240 241 241 242 243 244 245 246 248 248 249 248 248 247 247 247 247 247 246 245 245 246 246 247 247 248 249 249 250 252 254 255 256 258 259 259 259 260 260 261 261 261 262 262 263 263 263 263 263 264 264 265 266 266 267 267 267 267 268 268 269 269 270 270 270 270 270 270 269 269 269 270 270 271 272 272
234 234 235 235 234 235 237 237 238 239 240 241 241 242 243 243 244 245 247 247 248 249 249 249 249 248 248 247 246 246 246 246 247 247 247 247 248 249 250 251 253 255 256 257 258 259 260 260 261 261 261 261 262 262 263 264 264 264 264 264 264 264 265 266 267 267 268 268 268 269 269 269 270 270 270 270 270 270 270 269 269 269 270 270 271 271
233 233 234 234 234 234 235 236 237 238 239 240 241 242 243 244 245 247 248 249 250 251 251 251 251 250 249 248 247 247 247 247 247 247 248 248 248 249 251 251 253 254 256 257 258 259 259 260 261 262 263 263 262 262 263 263 263 264 264 264 264 264 264 265 265 266 267 268 268 269 269 269 270 270 270 271 271 271 270 270 270 270 270 270 270 271
234 234 234 234 234 235 236 236 237 238 239 240 241 242 243 244 246 247 249 250 251 252 252 251 251 251 251 250 249 248 248 248 248 247 248 249 249 250 252 253 253 254 255 256 258 259 260 260 261 262 263 263 263 263 263 263 263 263 263 263 263 263 264 264 264 265 266 267 267 268 269 269 269 270 270 270 271 271 271 271 271 271 270 270 271 271
234 234 234 234 235 235 236 237 238 239 239 240 241 241 242 244 245 247 248 249 250 251 252 252 251 251 251 251 250 250 249 249 249 249 249 250 250 251 252 253 254 255 256 256 257 259 259 260 261 262 262 263 263 263 263 263 263 263 263 263 263 263 263 263 264 265 265 266 267 268 268 268 269 269 269 270 270 270 271 271 271 272 272 272 272 272
234 234 234 234 234 235 236 237 238 238 238 239 240 241 241 242 243 244 246 247 248 250 251 251 251 251 251 252 251 251 251 250 250 250 250 250 251 252 252 253 254 255 257 258 258 258 259 259 260 261 261 262 263 263 264 264 264 264 263 263 263 263 263 263 263 264 265 266 267 267 268 268 269 269 269 269 269 270 270 270 271 271 272 272 272 273
235 235 235 235 235 235 235 236 237 238 238 239 239 240 241 242 243 244 245 246 248 249 251 252 252 252 252 253 253 253 252 252 252 252 252 252 252 252 253 253 254 255 256 257 259 259 259 259 260 260 260 261 262 263 263 264 264 264 264 264 263 263 263 263 264 264 265 266 267 268 268 268 268 269 269 269 269 269 270 270 270 271 271 272 272 273
235 235 235 235 235 235 235 235 236 237 238 239 239 240 241 242 243 244 245 246 248 249 250 252 253 253 253 254 254 254 254 254 254 253 253 253 253 253 253 253 254 254 255 255 257 258 259 260 260 260 260 261 261 262 262 263 263 264 264 265 265 265 265 265 265 265 266 267 267 268 268 268 269 269 269 269 269 269 269 269 270 270 270 271 271 272
235 236 236 236 236 236 235 236 236 237 239 240 241 242 242 243 244 244 245 246 247 248 249 251 252 252 253 253 254 255 256 255 255 254 254 254 254 253 253 253 254 254 255 255 256 257 259 259 260 260 261 261 262 262 262 262 263 263 264 264 265 265 265 265 266 266 266 267 267 268 268 268 269 269 269 270 270 270 270 270 270 270 270 271 271 271
236 236 236 236 236 237 237 237 238 239 240 241 242 243 243 243 244 245 245 246 247 248 249 250 251 251 251 252 253 255 256 256 256 256 255 255 255 254 254 254 254 254 254 255 255 256 257 259 260 260 261 261 262 263 263 263 263 264 264 264 264 265 265 265 266 266 266 267 267 267 268 268 268 269 269 270 270 270 270 270 270 271 271 271 271 271
236 237 237 237 237 237 238 238 238 239 239 240 241 241 242 243 243 244 245 245 246 247 248 248 249 249 249 250 252 253 255 255 256 257 257 256 256 256 256 255 255 254 254 255 255 256 257 258 259 260 261 261 262 263 263 264 264 264 264 264 264 264 265 265 266 266 266 267 267 268 268 268 268 268 269 269 270 270 271 271 271 271 271 271 272 272
236 237 237 238 238 238 238 238 238 238 238 239 240 240 241 242 242 243 244 244 245 246 246 247 248 248 249 249 250 251 253 254 255 257 258 258 258 258 258 257 257 256 256 256 256 256 257 258 259 261 262 263 263 263 263 263 264 264 264 265 265 265 265 265 265 266 266 266 267 267 268 268 268 268 269 269 270 270 271 271 271 272 272 272 272 272
236 237 237 238 238 238 239 239 239 239 239 239 240 240 241 242 242 243 244 244 245 246 246 247 247 248 249 249 250 250 251 253 254 256 257 258 259 260 260 260 259 259 259 258 258 258 258 258 259 260 261 263 263 263 263 263 263 264 264 264 265 265 266 266 266 266 266 266 267 267 267 268 268 268 268 269 269 270 271 271 272 272 272 272 273 273
236 237 237 238 239 239 239 239 239 240 239 239 240 240 241 242 243 243 244 245 246 246 247 248 248 249 249 249 250 250 250 251 253 254 256 257 259 259 260 260 261 261 261 261 261 260 260 259 259 259 260 261 263 264 264 264 264 264 264 264 264 265 265 265 265 266 266 266 267 267 267 268 268 268 268 269 269 270 270 271 271 272 272 273 273 273
236 237 237 238 239 240 240 240 240 240 240 240 240 240 241 242 243 243 244 245 246 247 248 248 249 249 249 249 250 250 250 251 252 254 255 256 257 258 259 260 261 262 262 263 263 263 263 262 261 260 259 260 261 262 263 264 264 265 265 265 265 265 265 265 265 265 265 266 266 266 267 267 268 268 269 269 269 270 270 271 271 272 272 273 273 274
237 237 237 238 239 239 240 240 240 240 240 241 240 241 241 242 243 244 245 246 247 248 248 249 249 249 249 250 250 250 251 252 253 254 254 255 256 256 257 259 260 261 262 262 262 263 263 263 264 264 263 262 261 261 262 263 264 264 265 265 265 265 265 265 265 265 265 265 266 266 266 267 267 268 268 269 270 270 270 271 271 272 272 273 273 274
237 237 237 238 239 240 240 240 240 240 241 241 241 242 243 244 244 245 246 246 247 248 248 249 250 250 250 251 251 252 252 253 253 253 254 254 255 256 256 257 258 260 261 261 261 261 262 262 263 264 265 265 264 263 263 263 263 263 264 264 265 265 266 266 266 266 266 266 266 266 266 266 267 267 268 268 269 270 270 271 271 272 272 273 273 274
236 237 237 238 239 240 240 241 241 241 242 242 243 243 244 245 245 246 246 246 247 247 248 249 250 251 252 252 253 253 253 252 252 253 253 254 255 256 257 257 258 258 259 259 260 261 261 261 262 262 263 264 265 265 265 265 265 265 265 265 265 265 266 266 266 267 267 267 267 268 268 267 267 267 267 268 268 269 269 270 270 271 271 272 272 273
235 235 236 237 238 239 240 240 241 241 241 242 242 243 243 244 245 246 247 248 249 250 250 251 252 252 253 253 254 254 253 253 253 253 254 254 255 256 257 257 258 258 258 259 259 260 260 261 261 261 262 262 263 264 265 265 266 266 267 268 268 268 268 268 268 268 268 268 268 268 268 268 268 268 268 268 268 269 269 269 270 270 270 271 271 272
235 235 235 236 237 238 238 239 241 241 241 241 242 242 243 244 246 248 250 251 252 253 253 253 253 253 254 254 254 254 254 254 254 254 255 255 255 256 256 257 257 258 259 259 259 259 260 260 260 260 261 261 262 262 263 264 265 266 267 267 268 269 270 270 271 271 271 271 271 271 271 270 270 270 270 270 270 270 270 270 270 270 270 271 271 271
237 238 238 239 239 240 241 242 243 243 244 244 245 246 247 249 250 251 251 251 252 253 254 254 254 254 254 254 254 255 255 255 255 255 256 256 256 256 257 257 257 258 258 258 259 259 259 260 260 260 260 260 261 261 262 262 263 264 265 266 267 267 268 269 270 271 272 273 273 274 274 274 274 274 273 273 273 273 272 272 272 272 272 272 272 272
239 239 240 241 242 243 244 245 246 247 248 249 250 251 251 251 251 251 251 250 251 253 253 254 254 254 255 255 255 255 255 255 255 256 256 257 257 257 257 258 258 258 258 258 259 259 259 259 260 260 260 260 260 260 261 261 261 262 263 264 265 266 267 267 268 269 270 271 272 273 274 275 276 276 276 277 277 276 276 276 276 276 276 275 276 276
238 239 239 240 241 243 244 245 247 248 249 250 251 251 251 252 252 252 252 251 251 253 253 253 253 253 254 254 255 256 256 257 257 258 258 258 258 258 258 258 258 258 258 259 259 259 259 259 259 259 259 260 260 260 260 260 261 261 262 262 263 264 265 266 267 268 268 269 270 271 272 272 273 274 275 276 277 277 278 278 278 278 278 278 278 279
237 238 239 240 241 242 243 245 246 247 248 249 249 250 251 252 253 253 254 254 254 255 255 254 254 254 254 254 255 256 257 258 258 258 259 259 260 260 260 260 259 259 259 259 259 259 259 259 259 259 259 259 259 260 260 260 260 260 261 261 262 263 263 264 265 266 267 267 268 269 270 270 271 272 272 273 274 275 276 277 277 278 278 278 278 279
237 238 240 240 241 242 243 245 246 247 247 248 249 250 250 251 253 254 255 255 255 255 255 255 255 255 255 256 256 257 257 258 258 258 259 259 260 260 260 260 260 260 260 260 260 260 260 260 260 260 260 260 260 260 260 260 260 260 260 261 261 262 262 263 263 264 265 266 267 267 268 268 269 270 270 271 271 272 273 274 275 275 276 277 277 278
237 239 240 242 243 244 244 245 246 247 247 248 249 249 250 251 253 254 255 255 255 255 256 256 257 257 257 257 258 258 258 258 259 259 260 260 261 262 262 262 261 261 261 261 261 261 261 261 261 261 261 261 261 261 261 261 261 261 261 261 261 261 262 262 262 263 264 264 265 266 266 267 268 268 269 269 270 270 271 272 273 273 274 275 275 276
238 239 240 242 243 244 245 246 246 247 248 249 249 250 250 251 253 254 254 255 256 257 257 258 258 258 259 259 259 259 260 260 260 261 262 264 265 265 265 265 264 263 263 262 262 262 262 262 262 261 261 261 261 261 261 261 261 261 261 261 261 261 262 262 262 263 263 263 264 264 265 265 266 267 268 269 269 270 270 271 271 272 273 273 273 274
240 241 242 243 244 245 245 246 247 247 247 248 249 250 251 251 252 253 255 256 257 258 259 259 259 259 260 260 261 261 262 263 263 264 265 266 268 268 268 267 266 265 264 264 263 263 262 262 262 262 262 262 262 262 262 261 261 261 261 261 262 262 262 263 263 263 264 264 264 264 265 265 265 266 266 267 268 269 269 270 270 271 272 272 273 273
241 242 242 243 244 246 247 247 248 248 248 249 250 252 253 253 254 255 255 256 257 258 259 259 260 261 262 263 264 265 266 266 266 267 267 268 268 269 269 268 267 266 265 265 264 264 263 263 263 263 262 262 262 262 262 262 262 262 262 262 262 262 262 262 263 263 264 264 265 265 266 266 266 266 266 267 267 267 268 269 269 270 271 271 272 272
242 243 243 244 245 246 247 248 250 250 251 252 253 254 255 255 255 255 256 257 258 259 260 261 262 263 264 265 267 268 268 269 268 268 268 268 268 269 269 268 267 266 266 265 265 265 264 264 264 264 263 263 263 263 263 263 263 263 263 263 263 263 263 262 263 263 263 263 264 264 265 266 266 267 267 267 267 267 268 268 268 269 269 270 271 271
244 245 245 246 247 247 248 250 251 252 252 253 253 254 254 255 256 256 257 258 259 260 261 263 264 265 267 268 268 269 269 269 269 269 268 268 268 269 268 268 268 267 267 266 266 266 266 266 265 265 265 264 264 264 264 264 264 264 264 264 264 264 264 263 263 263 263 263 263 264 264 265 265 266 266 267 267 268 268 268 268 268 269 269 270 270
245 246 246 247 248 249 249 250 251 252 252 252 253 254 254 255 256 256 257 258 260 262 264 265 267 268 268 269 269 269 269 269 270 270 269 269 268 268 268 268 268 267 267 267 267 268 268 267 267 267 267 266 266 265 265 265 265 266 266 266 265 265 265 265 264 264 264 264 264 264 264 264 265 265 266 266 267 267 268 268 268 269 269 269 269 269
244 245 246 247 248 249 249 250 251 252 252 252 252 253 253 255 256 258 259 261 262 264 265 266 267 268 268 269 269 269 270 270 270 270 270 269 268 268 267 267 267 267 267 267 267 268 268 268 268 268 268 268 268 268 267 267 267 267 266 266 266 266 266 265 265 265 265 265 265 265 265 265 265 265 266 266 267 267 267 268 268 268 269 269 269 269
244 245 246 247 247 248 249 249 250 250 251 252 253 254 255 257 258 260 261 262 263 264 265 265 266 267 268 269 270 270 270 270 270 271 271 270 269 268 268 267 267 266 266 266 267 267 268 268 268 269 269 270 270 270 270 269 269 268 268 267 267 266 266 266 265 265 265 265 265 265 266 266 266 266 266 266 266 267 267 268 268 269 269 269 269 269
245 246 247 248 249 249 249 250 251 252 253 255 256 257 258 259 259 260 261 262 263 263 264 265 266 267 268 269 270 270 271 271 270 270 270 270 269 269 268 268 268 267 266 266 266 266 266 267 268 268 269 270 271 271 272 272 271 270 269 269 268 267 267 267 266 266 266 265 265 265 266 266 266 267 267 267 267 267 267 268 268 269 269 269 269 270
Height
10695 10698 10702 10715 10728 10733 10734 10737 10744 10747 10750 10757 10758 10761 10767 10772 10777 10780 10779 10780 10783 10789 10798 10803 10807 10811 10812 10810 10810 10815 10821 10828 10832 10832 10832 10832 10832 10832 10832 10834 10836 10837 10837 10839 10840 10841 10843 10845 10846 10847 10849 10850 10851 10851 10853 10854 10854 10855 10857 10857 10857 10859 10860 10859 10859 10858 10858 10859 10860 10860 10859 10859 10859 10859 10859 10859 10858 10858 10859 10859 10859 10857 10856 10856 10855 10854
10686 10688 10700 10714 10721 10723 10724 10728 10735 10739 10746 10750 10752 10757 10762 10767 10773 10773 10772 10775 10776 10782 10791 10795 10799 10805 10807 10807 10805 10809 10816 10821 10824 10825 10825 10824 10823 10826 10828 10829 10830 10831 10832 10833 10834 10834 10836 10839 10841 10843 10844 10845 10846 10847 10848 10848 10849 10851 10852 10852 10853 10854 10854 10854 10854 10853 10853 10855 10855 10855 10854 10854 10854 10854 10854 10855 10854 10855 10855 10855 10854 10852 10852 10851 10850 10850
10680 10687 10701 10709 10711 10715 10719 10723 10729 10734 10739 10743 10747 10752 10758 10764 10766 10764 10764 10768 10769 10775 10783 10786 10792 10798 10801 10803 10802 10804 10811 10813 10815 10818 10818 10816 10817 10821 10824 10824 10825 10826 10827 10826 10826 10827 10830 10833 10837 10839 10839 10840 10842 10842 10842 10842 10844 10846 10846 10847 10847 10848 10848 10848 10848 10848 10849 10850 10850 10850 10850 10851 10850 10849 10850 10849 10850 10851 10852 10851 10849 10848 10848 10846 10845 10845
10680 10689 10698 10698 10701 10709 10714 10717 10721 10726 10731 10735 10740 10746 10753 10757 10756 10755 10758 10761 10763 10767 10774 10778 10783 10792 10796 10799 10800 10798 10802 10805 10807 10810 10811 10811 10812 10815 10817 10819 10820 10820 10819 10819 10819 10820 10823 10827 10831 10834 10835 10835 10836 10837 10837 10838 10839 10840 10840 10841 10842 10842 10843 10843 10843 10843 10844 10845 10845 10846 10846 10847 10846 10845 10845 10844 10845 10847 10847 10846 10845 10844 10843 10842 10841 10840
10674 10681 10682 10682 10687 10697 10703 10706 10710 10716 10723 10728 10731 10738 10745 10745 10744 10747 10749 10752 10755 10759 10766 10770 10775 10787 10792 10794 10796 10792 10792 10798 10802 10804 10805 10806 10806 10807 10809 10811 10812 10811 10811 10812 10812 10814 10817 10821 10825 10828 10830 10830 10831 10831 10832 10834 10835 10834 10834 10834 10835 10836 10836 10837 10837 10838 10840 10840 10841 10841 10842 10842 10842 10841 10839 10839 10840 10842 10842 10841 10840 10839 10839 10838 10837 10836
10663 10665 10666 10669 10676 10686 10692 10696 10701 10707 10716 10719 10722 10729 10734 10732 10733 10738 10741 10743 10745 10751 10759 10763 10770 10783 10787 10787 10791 10788 10786 10791 10795 10797 10799 10799 10798 10798 10801 10802 10803 10805 10805 10805 10806 10808 10811 10814 10818 10820 10823 10825 10826 10826 10827 10829 10829 10828 10827 10828 10829 10830 10830 10831 10832 10833 10835 10836 10836 10837 10837 10836 10836 10835 10833 10834 10834 10835 10836 10836 10835 10834 10834 10833 10832 10832
10651 10654 10658 10661 10667 10678 10683 10688 10694 10700 10706 10709 10714 10721 10721 10722 10724 10728 10733 10734 10737 10744 10751 10755 10765 10778 10781 10781 10785 10785 10781 10781 10786 10790 10791 10792 10792 10791 10792 10793 10795 10797 10797 10798 10799 10801 10804 10807 10809 10812 10816 10820 10821 10821 10823 10823 10822 10821 10821 10822 10823 10823 10824 10824 10826 10828 10830 10831 10832 10832 10831 10831 10830 10828 10827 10828 10828 10829 10830 10830 10830 10829 10828 10828 10827 10826
10647 10651 10652 10655 10662 10670 10677 10684 10688 10692 10696 10698 10706 10711 10712 10715 10716 10719 10726 10726 10729 10735 10739 10746 10757 10769 10776 10778 10778 10778 10775 10773 10776 10781 10783 10785 10786 10785 10785 10785 10785 10785 10787 10790 10792 10793 10796 10798 10801 10805 10810 10814 10815 10815 10817 10817 10816 10817 10817 10816 10816 10816 10817 10819 10821 10823 10824 10825 10826 10826 10826 10824 10823 10823 10822 10822 10822 10822 10823 10824 10824 10824 10823 10822 10821 10820
10646 10647 10647 10651 10654 10660 10670 10677 10679 10681 10683 10687 10697 10702 10704 10706 10707 10710 10714 10715 10718 10721 10729 10740 10747 10760 10774 10775 10770 10768 10770 10769 10767 10769 10774 10778 10779 10779 10778 10777 10775 10774 10776 10780 10784 10787 10788 10790 10793 10798 10803 10807 10808 10809 10810 10810 10810 10812 10812 10811 10811 10810 10810 10813 10815 10817 10817 10818 10819 10819 10819 10818 10817 10817 10817 10817 10816 10815 10815 10816 10817 10817 10816 10816 10815 10813
10627 10632 10635 10636 10637 10646 10657 10661 10664 10667 10669 10676 10685 10689 10692 10695 10697 10699 10699 10703 10704 10706 10722 10735 10738 10752 10767 10767 10763 10760 10763 10764 10761 10760 10764 10769 10771 10772 10771 10769 10767 10766 10766 10769 10774 10779 10781 10783 10786 10791 10796 10799 10801 10803 10804 10804 10804 10804 10806 10807 10807 10805 10804 10806 10808 10810 10811 10810 10811 10811 10812 10812 10811 10811 10812 10812 10811 10809 10809 10808 10808 10809 10809 10808 10807 10806
10609 10618 10617 10617 10623 10633 10640 10644 10650 10654 10656 10664 10672 10677 10682 10685 10688 10688 10688 10691 10688 10695 10717 10729 10730 10741 10751 10757 10758 10756 10757 10757 10755 10754 10756 10760 10764 10766 10765 10762 10759 10757 10758 10760 10764 10769 10772 10776 10781 10783 10786 10790 10794 10797 10798 10798 10797 10797 10799 10801 10801 10800 10799 10800 10800 10801 10802 10802 10803 10803 10804 10806 10805 10805 10805 10805 10804 10803 10802 10801 10799 10801 10801 10801 10800 10799
10597 10604 10605 10612 10622 10626 10629 10634 10640 10644 10650 10658 10664 10671 10675 10676 10679 10677 10677 10680 10677 10691 10714 10721 10724 10727 10733 10751 10757 10753 10751 10749 10749 10751 10752 10755 10756 10757 10757 10754 10751 10749 10750 10752 10754 10757 10762 10769 10775 10775 10777 10781 10785 10789 10791 10791 10791 10791 10792 10793 10794 10794 10794 10795 10794 10794 10794 10794 10795 10796 10796 10798 10798 10798 10799 10797 10796 10795 10795 10793 10791 10792 10793 10792 10792 10790
10590 10599 10604 10612 10617 10618 10621 10625 10630 10637 10647 10654 10659 10664 10666 10668 10671 10668 10669 10671 10672 10688 10705 10711 10715 10711 10719 10745 10752 10747 10747 10743 10744 10748 10749 10750 10747 10745 10745 10743 10743 10742 10741 10744 10744 10747 10755 10763 10767 10766 10768 10772 10776 10780 10783 10784 10785 10784 10784 10785 10785 10786 10788 10788 10788 10787 10786 10786 10787 10787 10788 10789 10789 10790 10791 10790 10788 10786 10786 10785 10784 10784 10784 10784 10783 10781
10581 10590 10594 10598 10605 10612 10615 10618 10626 10639 10649 10654 10657 10659 10658 10659 10660 10658 10661 10663 10666 10679 10693 10699 10701 10697 10709 10734 10741 10741 10742 10738 10737 10741 10743 10744 10739 10735 10733 10733 10735 10734 10733 10736 10737 10739 10747 10754 10756 10757 10760 10763 10765 10769 10773 10776 10777 10777 10777 10777 10777 10778 10779 10780 10781 10780 10779 10778 10779 10779 10779 10779 10780 10781 10782 10782 10781 10779 10778 10777 10776 10776 10775 10775 10774 10773
10566 10573 10579 10591 10603 10611 10615 10619 10627 10636 10640 10641 10643 10642 10642 10643 10643 10644 10648 10651 10656 10666 10677 10685 10687 10687 10699 10720 10731 10734 10734 10732 10732 10733 10734 10734 10731 10727 10724 10723 10725 10724 10724 10728 10729 10733 10740 10743 10744 10747 10752 10754 10755 10758 10762 10766 10768 10768 10768 10769 10769 10769 10770 10771 10772 10773 10772 10771 10771 10771 10771 10771 10771 10772 10773 10773 10772 10771 10770 10770 10769 10768 10767 10766 10765 10764
10557 10562 10574 10590 10597 10600 10606 10610 10612 10616 10618 10622 10627 10625 10627 10631 10632 10634 10637 10641 10648 10652 10660 10669 10676 10681 10691 10707 10722 10724 10723 10725 10723 10723 10724 10723 10722 10720 10717 10714 10714 10714 10715 10718 10722 10727 10731 10733 10734 10736 10741 10744 10746 10748 10751 10755 10758 10759 10760 10760 10760 10761 10761 10762 10763 10764 10765 10764 10764 10763 10763 10763 10763 10763 10764 10764 10763 10763 10763 10763 10762 10760 10759 10758 10758 10756
10549 10557 10572 10584 10586 10590 10595 10595 10596 10599 10602 10608 10610 10611 10619 10624 10623 10623 10624 10627 10630 10631 10641 10653 10663 10675 10683 10697 10711 10711 10712 10715 10711 10712 10715 10713 10711 10711 10709 10706 10704 10706 10708 10710 10715 10719 10720 10721 10723 10725 10729 10733 10736 10738 10740 10744 10747 10750 10752 10752 10753 10753 10753 10753 10754 10755 10756 10756 10755 10755 10755 10755 10755 10755 10755 10754 10754 10754 10754 10754 10753 10752 10751 10750 10750 10749
10537 10547 10560 10569 10575 10581 10580 10578 10583 10588 10590 10594 10598 10605 10613 10610 10608 10611 10607 10608 10613 10617 10631 10645 10654 10665 10674 10687 10700 10697 10699 10704 10701 10702 10704 10703 10703 10700 10700 10700 10698 10700 10702 10703 10705 10708 10709 10711 10712 10714 10718 10722 10726 10729 10731 10733 10736 10740 10742 10743 10744 10744 10745 10745 10744 10745 10746 10746 10746 10745 10746 10746 10746 10746 10746 10745 10744 10744 10745 10745 10743 10743 10743 10742 10741 10742
10525 10532 10542 10552 10561 10564 10559 10559 10567 10574 10579 10585 10591 10598 10600 10597 10602 10607 10599 10602 10611 10613 10624 10637 10643 10648 10659 10677 10686 10681 10685 10691 10689 10690 10691 10692 10694 10692 10692 10694 10694 10695 10695 10693 10694 10697 10700 10702 10702 10704 10706 10710 10715 10718 10720 10722 10725 10728 10730 10732 10734 10734 10735 10736 10735 10735 10735 10736 10736 10735 10736 10736 10736 10737 10736 10736 10735 10735 10735 10734 10733 10734 10734 10733 10733 10734
10515 10520 10531 10542 10549 10548 10545 10547 10556 10564 10572 10577 10581 10586 10589 10592 10600 10601 10594 10598 10603 10601 10609 10621 10626 10632 10647 10665 10670 10666 10673 10677 10674 10679 10681 10680 10684 10686 10686 10686 10687 10688 10686 10685 10686 10688 10691 10693 10694 10695 10696 10697 10701 10704 10708 10710 10713 10716 10719 10720 10722 10724 10725 10726 10725 10725 10724 10725 10725 10725 10725 10726 10726 10727 10727 10726 10725 10725 10725 10723 10723 10723 10724 10724 10724 10723
10498 10505 10517 10529 10532 10531 10534 10543 10554 10562 10565 10567 10571 10577 10584 10590 10593 10591 10586 10585 10586 10587 10594 10601 10609 10622 10639 10649 10652 10654 10661 10662 10660 10666 10671 10671 10674 10679 10678 10678 10679 10679 10676 10678 10679 10679 10681 10684 10685 10685 10684 10684 10687 10690 10694 10698 10701 10704 10706 10709 10711 10712 10714 10715 10715 10714 10714 10714 10715 10715 10715 10715 10716 10716 10716 10716 10715 10715 10714 10713 10713 10713 10713 10714 10714 10712
10486 10494 10504 10511 10514 10519 10530 10543 10546 10544 10546 10553 10560 10566 10573 10575 10574 10571 10567 10567 10572 10574 10578 10582 10593 10614 10630 10632 10636 10643 10646 10647 10647 10652 10658 10661 10665 10669 10670 10671 10673 10670 10668 10669 10670 10669 10669 10671 10673 10674 10672 10672 10674 10678 10681 10685 10688 10690 10693 10696 10699 10701 10702 10703 10703 10703 10703 10703 10704 10705 10705 10705 10705 10706 10706 10705 10705 10705 10704 10703 10703 10702 10703 10704 10702 10701
10477 10483 10488 10491 10500 10511 10522 10528 10525 10525 10534 10541 10545 10549 10555 10556 10557 10557 10555 10560 10565 10563 10568 10573 10581 10607 10623 10618 10621 10628 10629 10632 10636 10640 10647 10650 10654 10659 10660 10661 10663 10661 10661 10659 10656 10655 10657 10659 10661 10661 10660 10661 10664 10667 10669 10672 10674 10676 10679 10683 10686 10689 10690 10691 10692 10692 10692 10693 10693 10693 10694 10694 10694 10694 10694 10694 10694 10694 10693 10693 10692 10692 10692 10693 10691 10690
10459 10466 10470 10475 10486 10495 10502 10507 10509 10514 10519 10521 10528 10539 10546 10548 10551 10551 10547 10552 10555 10554 10563 10566 10570 10600 10616 10603 10603 10612 10613 10619 10624 10626 10633 10638 10641 10645 10647 10649 10650 10649 10650 10650 10646 10643 10644 10647 10649 10646 10646 10649 10652 10655 10657 10659 10661 10663 10666 10669 10673 10676 10677 10679 10680 10681 10681 10682 10682 10682 10682 10681 10682 10682 10682 10682 10682 10682 10682 10682 10681 10681 10681 10681 10680 10679
10445 10449 10454 10462 10469 10475 10484 10492 10497 10503 10510 10516 10528 10538 10540 10539 10539 10536 10537 10542 10543 10547 10558 10557 10562 10591 10600 10586 10590 10599 10596 10601 10606 10608 10616 10622 10624 10628 10630 10635 10636 10635 10636 10638 10639 10637 10634 10634 10635 10634 10635 10637 10639 10643 10644 10647 10649 10651 10654 10656 10659 10662 10663 10665 10667 10668 10669 10669 10669 10669 10669 10669 10670 10669 10669 10669 10669 10670 10669 10669 10670 10669 10670 10670 10669 10668
10427 10429 10437 10447 10454 10463 10476 10489 10498 10509 10516 10521 10525 10527 10527 10527 10527 10527 10530 10531 10532 10540 10549 10546 10552 10573 10580 10574 10581 10587 10581 10582 10586 10590 10598 10604 10606 10609 10614 10618 10621 10622 10623 10624 10627 10630 10628 10625 10623 10621 10624 10626 10628 10631 10631 10633 10636 10638 10640 10642 10645 10647 10648 10650 10652 10654 10655 10655 10655 10656 10655 10656 10658 10657 10657 10656 10656 10656 10656 10656 10657 10657 10657 10657 10657 10657
10413 10416 10426 10435 10446 10458 10470 10480 10490 10498 10502 10503 10505 10507 10509 10510 10511 10511 10511 10513 10522 10530 10530 10532 10539 10550 10559 10568 10575 10574 10568 10567 10570 10573 10579 10586 10589 10591 10595 10600 10604 10606 10609 10611 10614 10618 10621 10619 10613 10609 10611 10615 10619 10621 10620 10620 10620 10622 10625 10626 10628 10631 10634 10636 10638 10639 10640 10641 10641 10641 10641 10643 10644 10644 10644 10644 10643 10643 10643 10643 10644 10645 10644 10644 10645 10644
10403 10407 10417 10428 10440 10450 10456 10463 10470 10476 10482 10486 10488 10488 10489 10489 10489 10488 10491 10500 10510 10509 10508 10519 10528 10530 10545 10561 10565 10561 10556 10555 10558 10560 10563 10567 10571 10573 10576 10580 10584 10589 10594 10600 10602 10605 10610 10611 10607 10603 10602 10602 10604 10607 10608 10607 10607 10607 10609 10610 10611 10614 10618 10620 10623 10625 10626 10627 10627 10627 10627 10628 10629 10630 10631 10631 10630 10629 10629 10630 10630 10631 10631 10630 10631 10630
10394 10400 10411 10421 10429 10436 10442 10448 10453 10459 10466 10470 10471 10471 10472 10473 10473 10476 10483 10490 10492 10491 10499 10512 10515 10520 10538 10548 10547 10548 10547 10544 10547 10549 10551 10553 10553 10555 10558 10560 10564 10571 10578 10585 10590 10594 10597 10598 10599 10600 10595 10589 10587 10588 10591 10592 10593 10594 10595 10597 10598 10599 10601 10603 10606 10609 10610 10611 10612 10612 10613 10613 10614 10616 10616 10617 10617 10616 10616 10616 10616 10617 10617 10616 10616 10616
10387 10396 10405 10411 10417 10423 10429 10433 10438 10443 10447 10451 10455 10456 10457 10459 10462 10466 10473 10477 10478 10483 10495 10502 10503 10514 10530 10531 10529 10532 10533 10533 10539 10540 10542 10543 10540 10537 10539 10542 10548 10555 10561 10567 10574 10580 10581 10581 10586 10589 10587 10582 10576 10573 10573 10575 10577 10579 10580 10582 10583 10583 10584 10586 10589 10591 10593 10594 10595 10596 10597 10598 10599 10601 10601 10601 10602 10603 10603 10603 10603 10602 10602 10602 10602 10602
10380 10389 10398 10403 10407 10410 10413 10417 10423 10427 10429 10433 10438 10441 10442 10445 10449 10454 10461 10468 10471 10478 10488 10490 10489 10500 10514 10515 10512 10514 10515 10523 10535 10536 10533 10529 10524 10522 10524 10528 10535 10540 10545 10550 10556 10560 10559 10560 10565 10570 10573 10574 10570 10564 10560 10559 10561 10562 10563 10564 10565 10566 10567 10569 10571 10573 10575 10577 10579 10580 10581 10583 10584 10585 10585 10585 10586 10588 10589 10590 10589 10588 10587 10587 10587 10588
10372 10380 10388 10391 10392 10394 10399 10402 10405 10409 10412 10414 10419 10426 10430 10434 10439 10447 10455 10462 10465 10470 10474 10471 10471 10486 10500 10496 10492 10498 10508 10519 10527 10526 10518 10509 10505 10509 10514 10518 10522 10526 10531 10536 10539 10539 10539 10541 10544 10546 10549 10555 10557 10555 10552 10549 10547 10546 10546 10546 10546 10546 10549 10551 10553 10555 10557 10559 10562 10564 10565 10567 10569 10570 10570 10570 10571 10572 10573 10574 10574 10573 10572 10573 10573 10573
10363 10370 10376 10379 10379 10382 10386 10387 10391 10395 10396 10396 10405 10417 10425 10430 10434 10439 10445 10450 10453 10454 10454 10453 10461 10476 10483 10478 10479 10492 10506 10512 10509 10503 10496 10490 10489 10494 10502 10510 10515 10516 10516 10518 10520 10521 10523 10527 10528 10527 10528 10530 10534 10536 10538 10537 10535 10533 10531 10530 10529 10530 10531 10533 10535 10537 10539 10541 10543 10546 10549 10551 10554 10556 10555 10555 10555 10556 10557 10557 10558 10557 10557 10558 10558 10558
10351 10356 10361 10364 10366 10369 10372 10375 10377 10377 10377 10385 10400 10413 10418 10421 10423 10423 10427 10432 10434 10436 10439 10445 10456 10465 10467 10468 10472 10480 10487 10488 10483 10478 10477 10479 10480 10483 10491 10500 10504 10503 10500 10500 10503 10504 10506 10510 10513 10513 10512 10511 10512 10514 10516 10518 10517 10516 10514 10513 10513 10514 10515 10517 10519 10520 10522 10523 10524 10526 10529 10532 10536 10539 10540 10540 10540 10541 10541 10541 10541 10541 10541 10542 10543 10543
10335 10340 10344 10348 10351 10355 10358 10358 10355 10355 10364 10378 10390 10397 10402 10406 10407 10407 10412 10420 10425 10429 10435 10440 10448 10453 10453 10453 10454 10455 10460 10464 10463 10463 10467 10471 10472 10474 10479 10483 10484 10484 10484 10485 10487 10489 10490 10492 10493 10494 10495 10495 10496 10497 10498 10499 10499 10498 10498 10497 10495 10495 10496 10498 10500 10503 10505 10506 10507 10508 10510 10512 10516 10518 10520 10522 10523 10524 10524 10524 10524 10525 10524 10526 10528 10527
10322 10326 10331 10334 10337 10340 10341 10341 10340 10345 10357 10367 10373 10385 10396 10403 10405 10406 10410 10418 10421 10422 10424 10427 10432 10436 10434 10433 10434 10437 10441 10443 10445 10450 10456 10460 10461 10462 10463 10466 10468 10469 10468 10467 10468 10471 10472 10473 10473 10474 10476 10477 10480 10482 10484 10485 10485 10484 10483 10483 10482 10481 10479 10479 10480 10481 10482 10484 10486 10487 10489 10492 10495 10497 10500 10502 10503 10505 10505 10505 10506 10506 10507 10509 10510 10510
10317 10321 10325 10328 10331 10333 10334 10336 10337 10341 10352 10363 10375 10391 10401 10402 10402 10401 10402 10407 10410 10407 10408 10412 10414 10415 10414 10414 10416 10418 10419 10420 10427 10438 10444 10444 10446 10447 10448 10450 10452 10452 10451 10449 10448 10449 10451 10452 10453 10454 10456 10459 10461 10464 10467 10469 10470 10470 10469 10468 10468 10467 10467 10467 10467 10466 10465 10465 10465 10465 10466 10468 10471 10473 10476 10478 10480 10482 10483 10484 10485 10486 10487 10489 10490 10489
10311 10316 10320 10321 10325 10328 10329 10331 10333 10338 10353 10369 10379 10389 10390 10386 10386 10383 10381 10391 10399 10396 10393 10395 10395 10396 10396 10395 10396 10398 10397 10402 10416 10429 10429 10425 10428 10432 10432 10433 10433 10432 10432 10431 10431 10431 10432 10432 10433 10434 10435 10438 10441 10445 10448 10451 10453 10455 10455 10454 10454 10453 10452 10454 10455 10454 10453 10452 10450 10450 10450 10450 10451 10452 10453 10454 10455 10457 10459 10461 10462 10464 10466 10468 10469 10468
10300 10305 10308 10310 10314 10318 10320 10323 10327 10336 10355 10366 10369 10372 10370 10367 10368 10363 10362 10379 10391 10381 10374 10377 10378 10378 10378 10378 10380 10382 10383 10392 10408 10415 10409 10406 10411 10413 10412 10414 10415 10415 10414 10413 10412 10412 10412 10412 10412 10413 10414 10416 10419 10423 10427 10430 10433 10436 10438 10439 10440 10440 10439 10439 10440 10440 10440 10439 10438 10437 10437 10436 10436 10437 10437 10437 10437 10437 10438 10439 10440 10442 10445 10446 10447 10447
10289 10292 10296 10299 10305 10310 10312 10315 10321 10333 10347 10354 10355 10357 10355 10352 10350 10345 10349 10371 10378 10363 10356 10360 10360 10359 10363 10366 10369 10373 10376 10384 10395 10396 10390 10391 10394 10394 10393 10395 10396 10397 10397 10395 10392 10391 10390 10391 10393 10393 10395 10396 10398 10401 10404 10408 10412 10416 10419 10421 10424 10425 10425 10425 10424 10425 10425 10424 10424 10423 10423 10422 10422 10422 10422 10423 10424 10423 10421 10421 10422 10424 10425 10426 10427 10428
10278 10281 10285 10291 10297 10301 10304 10308 10315 10326 10336 10341 10342 10341 10339 10337 10335 10336 10345 10357 10352 10340 10341 10344 10343 10347 10354 10357 10360 10365 10368 10372 10377 10378 10376 10376 10375 10374 10375 10375 10375 10376 10377 10376 10375 10374 10373 10373 10375 10376 10377 10378 10379 10382 10384 10387 10391 10395 10398 10403 10406 10407 10408 10409 10409 10409 10409 10409 10409 10408 10408 10407 10406 10406 10407 10407 10409 10409 10407 10406 10406 10407 10407 10408 10409 10409
10272 10274 10278 10284 10288 10292 10297 10301 10307 10317 10326 10329 10327 10324 10326 10327 10328 10332 10335 10331 10324 10325 10331 10332 10333 10338 10343 10346 10350 10353 10355 10357 10359 10360 10360 10359 10358 10357 10357 10357 10357 10357 10357 10357 10358 10358 10358 10357 10357 10358 10358 10359 10361 10364 10366 10369 10372 10375 10378 10381 10385 10387 10389 10390 10391 10393 10393 10393 10393 10392 10391 10390 10388 10389 10390 10390 10392 10393 10392 10390 10390 10390 10390 10390 10390 10390
10264 10265 10271 10277 10281 10284 10288 10291 10300 10311 10319 10318 10312 10311 10316 10319 10318 10318 10316 10310 10311 10317 10320 10322 10326 10328 10330 10334 10337 10338 10339 10342 10345 10346 10346 10344 10342 10340 10339 10339 10339 10338 10339 10339 10339 10339 10339 10339 10338 10338 10339 10340 10342 10344 10347 10350 10353 10355 10357 10360 10363 10366 10369 10371 10372 10374 10375 10375 10376 10375 10374 10374 10373 10372 10373 10373 10374 10376 10376 10374 10373 10373 10374 10373 10373 10373
10256 10261 10267 10273 10274 10275 10280 10287 10294 10301 10303 10300 10296 10296 10302 10305 10304 10304 10303 10302 10305 10308 10309 10311 10314 10314 10316 10320 10323 10324 10327 10330 10331 10332 10331 10328 10326 10323 10321 10320 10319 10320 10321 10320 10319 10319 10319 10319 10319 10319 10319 10320 10322 10324 10327 10331 10334 10336 10339 10341 10344 10347 10351 10353 10354 10354 10353 10354 10354 10354 10354 10355 10357 10357 10357 10357 10358 10358 10359 10358 10357 10357 10356 10356 10356 10357
10253 10257 10260 10264 10265 10267 10273 10279 10282 10285 10287 10287 10288 10289 10292 10294 10294 10294 10294 10295 10295 10295 10296 10297 10299 10302 10307 10309 10310 10312 10314 10315 10316 10317 10315 10313 10311 10307 10304 10303 10303 10303 10304 10303 10301 10300 10299 10299 10300 10301 10301 10303 10304 10306 10308 10311 10314 10318 10320 10322 10326 10330 10333 10335 10336 10335 10335 10334 10333 10333 10333 10334 10335 10337 10338 10339 10340 10342 10342 10342 10342 10342 10340 10338 10338 10340
10246 10247 10250 10255 10257 10260 10266 10269 10271 10276 10280 10280 10280 10281 10281 10280 10280 10281 10282 10283 10283 10283 10284 10286 10289 10293 10296 10297 10298 10299 10300 10300 10302 10302 10300 10298 10295 10291 10289 10288 10288 10289 10288 10286 10284 10282 10281 10281 10282 10282 10284 10285 10285 10288 10290 10292 10296 10300 10303 10305 10307 10311 10314 10316 10316 10317 10317 10317 10316 10314 10313 10313 10314 10315 10317 10318 10319 10321 10322 10323 10325 10326 10325 10323 10321 10321
10238 10239 10241 10246 10249 10253 10260 10262 10262 10265 10266 10265 10266 10268 10268 10266 10267 10269 10270 10271 10271 10272 10274 10276 10279 10281 10283 10285 10286 10286 10286 10286 10286 10286 10285 10284 10280 10277 10276 10274 10274 10274 10273 10271 10269 10267 10265 10265 10264 10265 10266 10267 10268 10270 10274 10276 10279 10283 10286 10289 10290 10292 10296 10297 10297 10298 10298 10298 10298 10298 10297 10297 10297 10297 10297 10298 10298 10299 10301 10302 10305 10307 10308 10306 10305 10304
10229 10228 10231 10237 10241 10245 10250 10250 10248 10250 10251 10252 10254 10255 10254 10253 10253 10254 10256 10258 10261 10263 10265 10266 10268 10269 10270 10271 10271 10272 10273 10273 10272 10272 10271 10269 10267 10265 10263 10261 10261 10260 10258 10257 10255 10253 10252 10251 10250 10249 10248 10248 10249 10252 10257 10262 10265 10267 10269 10272 10274 10276 10277 10278 10278 10279 10280 10279 10279 10280 10280 10280 10280 10280 10280 10280 10280 10280 10280 10282 10283 10286 10288 10288 10287 10287
10216 10217 10224 10229 10231 10234 10238 10238 10237 10236 10235 10236 10239 10240 10239 10240 10241 10243 10246 10249 10252 10254 10254 10254 10255 10255 10256 10257 10258 10260 10260 10258 10258 10258 10257 10256 10255 10253 10251 10249 10248 10246 10245 10243 10241 10239 10238 10237 10236 10235 10233 10232 10232 10234 10239 10245 10249 10251 10253 10256 10258 10259 10260 10259 10260 10261 10262 10261 10261 10260 10261 10262 10263 10263 10264 10263 10263 10262 10262 10262 10263 10265 10267 10267 10267 10268
10205 10210 10215 10216 10218 10223 10226 10223 10221 10219 10218 10220 10226 10228 10229 10231 10233 10235 10237 10239 10239 10240 10241 10241 10242 10243 10244 10245 10245 10246 10246 10246 10246 10245 10244 10243 10241 10239 10238 10236 10234 10232 10231 10229 10227 10226 10224 10222 10221 10221 10220 10219 10218 10218 10222 10227 10231 10234 10236 10239 10242 10243 10243 10242 10242 10243 10244 10244 10244 10243 10242 10243 10244 10245 10246 10247 10247 10246 10245 10244 10243 10244 10246 10247 10246 10246
10197 10200 10201 10202 10206 10211 10211 10207 10206 10208 10210 10212 10216 10218 10220 10222 10223 10223 10224 10225 10226 10227 10228 10229 10230 10231 10232 10233 10233 10234 10234 10234 10233 10232 10231 10230 10228 10226 10225 10223 10220 10218 10215 10213 10212 10211 10209 10207 10207 10208 10208 10208 10207 10206 10207 10210 10212 10215 10219 10223 10225 10227 10227 10226 10226 10226 10227 10228 10228 10228 10227 10226 10226 10226 10227 10228 10229 10230 10229 10228 10226 10224 10225 10225 10226 10226